Regional Weather Roundup
Issued by NWS

Home | Current Version | Previous Version | Text Only | Print | Product List | Glossary Off
Versions: 1 2 3 4 5 6 7 8 9 10 11 12 13 14 15 16 17 18 19 20 21 22 23 24 25 26 27 28 29 30 31 32 33 34 35 36 37 38 39 40 41 42 43 44 45 46 47 48 49 50

000
ASUS43 KMKX 191921
RWRWI

WISCONSIN REGIONAL WEATHER ROUNDUP
NATIONAL WEATHER SERVICE MILWAUKEE/SULLIVAN WI
200 PM CDT SUN OCT 19 2014

NOTE: "FAIR" INDICATES FEW OR NO CLOUDS BELOW 12,000 FEET WITH NO
SIGNIFICANT WEATHER AND/OR OBSTRUCTIONS TO VISIBILITY.

WIZ001-002-006>008-014>016-023>028-192000-
NORTHWEST WISCONSIN

CITY           SKY/WX    TMP DP  RH WIND       PRES   REMARKS
SUPERIOR ARPT  SUNNY     60  43  54 SW9       29.74F
ASHLAND        PTSUNNY   58  42  55 SW13G20   29.76F
HAYWARD        PTSUNNY   56  42  59 SW14      29.79F
SIREN          MOSUNNY   59  42  54 SW12      29.79F
CUMBERLAND     PTSUNNY   55  41  58 SW10G18   29.81F
RICE LAKE      PTSUNNY   59  43  55 S14G20    29.83F
CHETEK         PTSUNNY   57  44  61 SW13      29.83F
LADYSMITH      PTSUNNY   52  43  69 S13       29.84F
EAU CLAIRE     CLOUDY    59  43  55 SW13      29.83F
MENOMONIE      PTSUNNY   57  43  58 S17       29.84F
NEW RICHMOND   PTSUNNY   60  42  51 SW15      29.83S
OSCEOLA        MOSUNNY   60  44  55 SW13      29.84F
$$

WIZ003>005-009-010-017-018-192000-
NORTH CENTRAL WISCONSIN

CITY           SKY/WX    TMP DP  RH WIND       PRES   REMARKS
MANITOWISH WTR CLOUDY    50  42  71 SW18G24   29.79F
ARBOR VITAE    CLOUDY    52  44  75 S13       29.80F
WOODRUFF       CLOUDY    52  44  75 S13       29.80F
RHINELANDER    CLOUDY    48  40  73 S14G23    29.83F
EAGLE RIVER    LGT RAIN  47  39  74 S6        29.80F
LAND O LAKES   LGT RAIN  46  41  81 SW3       29.81F
PHILLIPS       CLOUDY    51  41  70 SW15G22   29.81F
TOMAHAWK       CLOUDY    51  41  69 CALM      29.84F
MEDFORD        DRIZZLE   50  41  73 S12G18    29.85F
MERRILL        LGT RAIN  50  43  77 SW14      29.86F
$$

WIZ029-030-035-036-043>047-192000-
CENTRAL WISCONSIN

CITY           SKY/WX    TMP DP  RH WIND       PRES   REMARKS
WAUSAU         CLOUDY    52  40  63 SW14G24   29.87F
MOSINEE        MOSUNNY   52  45  76 S14       29.89F
MARSHFIELD     PTSUNNY   57  42  57 S14       29.87F
STEVENS POINT  PTSUNNY   53  40  62 S10G22    29.91F
WAUPACA        CLOUDY    57  41  56 S13G22    29.94F
WAUTOMA        CLOUDY    56  41  57 SW12G23   29.95F
WISC RAPIDS    MOSUNNY   54  41  61 S18G25    29.92F
CAMP DOUGLAS   PTSUNNY   55  45  67 S9G17     29.92F
$$

WIZ011>013-019>022-031-037>040-048>050-192000-
NORTHEAST WISCONSIN

CITY           SKY/WX    TMP DP  RH WIND       PRES   REMARKS
ANTIGO         CLOUDY    50  41  69 S14       29.87F
SHAWANO        CLOUDY    56  41  56 S7        29.92F
OCONTO         CLOUDY    52  43  71 S8        29.93F
STURGEON BAY   CLOUDY    52  39  62 S13G22    29.94F
GREEN BAY      CLOUDY    53  42  66 S13G23    29.95F
MANITOWOC      CLOUDY    54  40  59 SW10      29.99F
APPLETON       PTSUNNY   54  39  58 SW16G23   29.96F
CLINTONVILLE   CLOUDY    54  41  62 SW15      29.92F
OSHKOSH        PTSUNNY   54  41  61 S16G24    29.96F
$$

WIZ032>034-041-042-053>061-192000-
SOUTHWEST WISCONSIN

CITY           SKY/WX    TMP DP  RH WIND       PRES   REMARKS
LA CROSSE      PTSUNNY   63  44  50 SW15      29.90F
SPARTA         PTSUNNY   56  42  58 S14       29.90F
VIROQUA        PTSUNNY   56  44  63 S15G21    29.94F
BOSCOBEL       CLOUDY    61  44  53 SW12G23   29.98F
PRAIRIE DU CHI CLOUDY    58  42  56 SW13G18   29.98F
PLATTEVILLE    CLOUDY    57  45  63 S9G21     30.01F
$$

WIZ056-057-062-063-064-067-068-192000-
SOUTH CENTRAL WISCONSIN

CITY           SKY/WX    TMP DP  RH WIND       PRES   REMARKS
REEDSBURG      CLOUDY    55  44  66 S17       29.97F
BARABOO/DELLS  CLOUDY    55  40  57 S16       29.96F
LONE ROCK      CLOUDY    60  43  53 S16       29.99F
MINERAL POINT  CLOUDY    55  43  62 SW14      30.00F
MADISON        CLOUDY    55  40  56 S14G22    30.01F
MIDDLETON      CLOUDY    56  40  54 SW13G23   30.01F
WATERTOWN      CLOUDY    55  42  61 SW16      30.02F
MONROE         CLOUDY    54  43  66 S16       30.03F
JANESVILLE     SUNNY     55  39  54 SW14      30.05F
$$

WIZ051-052-058>065-066-070>072-192000-
SOUTHEAST WISCONSIN

CITY           SKY/WX    TMP DP  RH WIND       PRES   REMARKS
MILWAUKEE      CLOUDY    53  39  59 SW16      30.04F
WAUKESHA       MOSUNNY   52  39  62 SW12      30.04F
MILWAUKEE/TIMM NOT AVBL
RACINE         PTSUNNY   54  40  59 S13G23    30.07F
BURLINGTON     PTSUNNY   53  39  58 S14G20    30.04F
KENOSHA        PTSUNNY   53  40  61 SW15G23   30.06F
FOND DU LAC    PTSUNNY   54  40  59 SW13G25   29.98F
SHEBOYGAN      CLOUDY    55  40  56 SW15G23   30.00F
WEST BEND      PTSUNNY   54  37  54 SW15G21   30.01F
JUNEAU         CLOUDY    53  41  63 S17G23    30.02F
$$

LSZ147-162-192000-
LAKE SUPERIOR

STATION/POSITION TIME  TEMP    WIND        PRES    WAVE
                       AIR SEA DIR/SP/G            HT/PER
                 (UTC) (F)     (DEG/KT/KT) (MB)    (FT/S)
W MID LAKE BUOY  1850   48 46  220/ 10/ 12 1007.7F   2/ 5
DEVILS ISLAND    1900   49     280/  7/  8 1007.5F
PORT WING        1800   55     220/  8/ 15 1008.1F
SAXON HARBOR     1800   52      CALM  /  5 1008.8F
$$

LMZ867-665-643>646-192000-
LAKE MICHIGAN

STATION/POSITION TIME  TEMP    WIND        PRES    WAVE
                       AIR SEA DIR/SP/G            HT/PER
                 (UTC) (F)     (DEG/KT/KT) (MB)    (FT/S)
CHAMBERS ISLAND  1800   49     180/  7/ 15 1014.9F
N MID LAKE BUOY  1850   49 51  210/ 21/ 23 1014.5F   4/ 5
NORTHPORT PIER   1900   51     150/  8/ 14 1013.5F
SISTER BAY       1758          230/ 14/ 16   N/A
KEWAUNEE LAKESHO 1900   53     180/ 12/ 15 1014.2F
SHEBOYGAN LAKESH 1900   53 50  210/ 13/ 17 1016.4F
PORT WASHINGTON  1800   56     220/  8/ 20 1018.3F
ATWATER BUOY     1900   53     190/ 16/ 21 1018.1F
MILWAUKEE LAKESH 1900   53     220/ 14/ 17   N/A
S MID LAKE BUOY  1850   50 55  200/ 16/ 19 1019.1F   3/ 5
KENOSHA   LAKESH 1900   53     210/  8/ 19 1017.9F
$$

TC  - TEMPERATURE IN CELSIUS
VSB - VISIBILITY IN STATUTE MILES
WCI - WIND CHILL INDEX
HX  - HEAT INDEX



USA.gov is the U.S. government's official web portal to all federal, state and local government web resources and services.